loading
DOY 171 | 2024-06-19T23:43:50Z
Showing default

FTV 3502, 369

Orbit data source: Space-Track

FTV 3502, 369 is a payload satellite owned by SAFSP (US) in SSO that was launched on Thu, 23 Aug 1962 UTC via a Scout X-2M launch vehicle from the Air Force Western Test Range (AFWTR). Payloads include a variety of satellites, spacecraft, and rockets equipped with specific instruments for various scientific and technological missions. These include communications satellites like Starlink; space stations such as the ISS; scientific satellites like the Hubble; Earth observation satellites from companies like Planet Labs, Umbra, and HawkEye 360; GPS; miniature CubeSats for education and research; and military/defense satellites.

Loading next visibility...
Loading greatness...
FTV 3502 details
NORAD ID369
COSPAR ID
1962-039A
Orbit
SSO
Last TLE update10 hours ago
Origin
Flag of USSAFSP (US)
ManufacturerRCA/East Windsor
BusP35
MotorUnknown
Mass50 kg wet, 50 kg dry
Launch date (UTC)
1962-08-23 (62 years ago)
Launch vehicle
Scout X-2M
Launch site
Air Force Western Test Range (AFWTR)
Object type
Payload
Rocket body
Debris
Radar Cross Section0.41 m², Medium (>0.1 m² and < 1m²)
Predictive object data (real-time)
Latitude75.79504°
Longitude-65.73819°
Altitude656.803 km
Speed7.514 km/s
Apparent Right ascension23h 41m 51s
Apparent Declination25° 10' 48"
Sunlit
Object is in daylight
Predictive observer data (real-time)
Local Sidereal Time10:38:07
Azimuth344.312° N
Elevation-23.23°
Doppler factor1
Orbital elements
Apogee660.446 km
Perigee542.172 km
Semi-major axis6,979.446 km
Eccentricity0.008473
Inclination98.5399°
RAAN189.8309°
Arg. of periapsis330.383°
True anomaly29.73899°
Mean anomaly29.26°
Mean motion3.7223 °/min
BSTAR0.00017551
Period96.71 mins
Definitive object data (Epoch: 2024-06-19T13:35:38.683Z)
Latitude-0.00002°
Longitude77.64875°
Altitude555.759 km
Speed7.612 km/s
True Right ascension12h 39m 19s
True Declination0° 00' 00"
Sunlit
Object was in daylight at TLE epoch
TLE from 10 hours ago
0 FTV 3502
1 00369U 62039A   24171.56641995  .00001649  00000-0  17551-3 0  9990
2 00369  98.5399 189.8309 0084730 330.3830  29.2600 14.87979571307224
Epoch: 2024-06-19T13:35Z
No data available

FTV 3502 Visibility forecast

Observer location: 39.9160978°, -105.1181434, 0m alt.

FTV 3502 is not visible in the next 10 days
Span
Click to sort rows by Start time (UTC) header in descending order
Start Az.
Max El. time (UTC)
Max El. Az.
Max El.
End time (UTC)
End Az.